Back to catalog

CZ-6A DEB

AliveSSO
NORAD 54291·DEBRIS·🇨🇳 China

Launched Nov 11, 2022 from Taiyuan Satellite Launch Center

Loading…

Next Passes (next 24 hours)

TLE

FreshSource: Space-Track

Epoch: Sep 13, 2026, 22:45 UTC

1 54291U 22151AJ  26256.94852370 -.00000024  00000-0  11327-4 0  9996
2 54291  98.8721 246.4171 0081615  68.3172 292.6662 14.05792963196365

Track CZ-6A DEB in real time with AllMySat

Download on the App Store